User: anonymous   Login
Location: Unspecified
(0.0000°N, 0.0000°E)
Time: 04:13:12
(UTC+00:00)
Language:

STARLINK-31733 - Orbit

View from above orbital plane
View from above orbital plane
View from above satellite
View from above satellite

Ground track
Ground track

The orbit is defined by the following mean orbital elements,

1 59486U          26144.69750689 +.00000000 +00000-0 -31641-4 0 00002
2 59486  43.0020 270.1798 0001161 287.0593  73.0132 15.27575142    05
Epoch (UTC): 24 May 2026 16:44:24
Eccentricity: 0.0001161
inclination: 43.0020°
perigee height: 482 km
apogee height: 484 km
right ascension of ascending node: 270.1798°
argument of perigee: 287.0593°
revolutions per day: 15.27575142
mean anomaly at epoch: 73.0132°

The dashed part of the orbit path shows where the satellite is in the earth's shadow,  

DLR